This is the latest recevied weather packets stored in our database for station/object W3EJE-13. If no packets are shown the sender has not sent any weather packets the latest 1 day(s).
| Time | Temp. | Humidity | Pressure | Rain* | Wind** | Luminosity | Snow |
|---|---|---|---|---|---|---|---|
| 1778022769 | 20.56° C | 53% | 1011.2 hPa | 0 mm | 2.68 m/s, 284° | 32 W/m² | - |
| 1778022467 | 20.56° C | 52% | 1011.1 hPa | 0 mm | 1.34 m/s, 230° | 39 W/m² | - |
| 1778022163 | 20.56° C | 51% | 1011 hPa | 0 mm | 1.79 m/s, 240° | 43 W/m² | - |
| 1778021859 | 20.56° C | 52% | 1011.1 hPa | 0 mm | 1.79 m/s, 340° | 42 W/m² | - |
| 1778021557 | 20.56° C | 51% | 1011.2 hPa | 0 mm | 1.79 m/s, 293° | 43 W/m² | - |
| 1778021252 | 20.56° C | 52% | 1011.4 hPa | 0 mm | 2.68 m/s, 285° | 67 W/m² | - |
| 1778020950 | 21.11° C | 53% | 1011.2 hPa | 0 mm | 1.34 m/s, 249° | 92 W/m² | - |
| 1778020647 | 21.11° C | 49% | 1011.5 hPa | 0 mm | 1.79 m/s, 270° | 102 W/m² | - |
| 1778020343 | 21.11° C | 51% | 1011.4 hPa | 0 mm | 2.24 m/s, 324° | 101 W/m² | - |
| 1778020039 | 21.11° C | 48% | 1011.5 hPa | 0 mm | 2.68 m/s, 334° | 100 W/m² | - |
| 1778019735 | 21.11° C | 48% | 1011.6 hPa | 0 mm | 1.79 m/s, 283° | 113 W/m² | - |
| 1778019433 | 21.67° C | 47% | 1011.4 hPa | 0 mm | 2.24 m/s, 279° | 112 W/m² | - |
| 1778019129 | 21.67° C | 49% | 1011.3 hPa | 0 mm | 2.24 m/s, 215° | 128 W/m² | - |
| 1778018826 | 21.67° C | 49% | 1011.5 hPa | 0 mm | 1.79 m/s, 276° | 144 W/m² | - |
| 1778018524 | 21.67° C | 48% | 1011.5 hPa | 0 mm | 1.34 m/s, 302° | 144 W/m² | - |
| 1778018222 | 21.67° C | 47% | 1011.4 hPa | 0 mm | 2.68 m/s, 263° | 133 W/m² | - |
| 1778017920 | 21.11° C | 48% | 1011.5 hPa | 0 mm | 2.24 m/s, 278° | 147 W/m² | - |
| 1778017617 | 21.67° C | 50% | 1011.4 hPa | 0 mm | 4.02 m/s, 262° | 144 W/m² | - |
| 1778017314 | 21.11° C | 52% | 1011.3 hPa | 0 mm | 1.79 m/s, 331° | 143 W/m² | - |
| 1778017012 | 21.11° C | 49% | 1011.4 hPa | 0 mm | 2.24 m/s, 279° | 135 W/m² | - |
| 1778016708 | 21.67° C | 52% | 1011.4 hPa | 0 mm | 1.79 m/s, 322° | 131 W/m² | - |
| 1778016404 | 21.11° C | 50% | 1011.4 hPa | 0 mm | 2.24 m/s, 271° | 138 W/m² | - |
| 1778016102 | 21.67° C | 50% | 1011.3 hPa | 0 mm | 3.13 m/s, 319° | 135 W/m² | - |
| 1778015799 | 21.67° C | 50% | 1011.3 hPa | 0 mm | 1.79 m/s, 261° | 137 W/m² | - |
| 1778015496 | 21.67° C | 47% | 1011.3 hPa | 0 mm | 0.89 m/s, 229° | 142 W/m² | - |
* Rain latest hour (hover to see other rain measurements)
** Current wind speed in m/s (hover to see current wind gust speed)